Location: B
(0.0000°N, 0.0000°E)
Time: 04:50:26
(UTC+02:00)

ISS - All Passes

Search period start: 16 September 2014 00:00
Search period end: 26 September 2014 00:00
Orbit: 414 x 417 km, 51.6° (Epoch: 15 September)

Date Brightness Start Highest point End Pass type
(mag) Time Alt. Az. Time Alt. Az. Time Alt. Az.
16 Sep - 02:53:50 10° SW 02:57:11 89° SE 03:00:30 10° NE night (unlit)
16 Sep - 14:29:34 10° NNW 14:32:48 53° NE 14:36:03 10° SE daylight
17 Sep - 02:05:29 10° SSW 02:08:32 33° SE 02:11:34 10° ENE night (unlit)
17 Sep - 13:41:31 10° N 13:44:08 21° NE 13:46:45 10° ESE daylight
17 Sep - 15:19:27 10° WSW 15:20:39 12° SW 15:21:52 10° SSW daylight
18 Sep - 01:17:53 10° SSE 01:19:50 15° SE 01:21:46 10° E night (unlit)
18 Sep - 02:54:04 10° W 02:56:21 17° NW 02:58:37 10° N night (unlit)
18 Sep - 14:29:06 10° WNW 14:31:55 26° SW 14:34:45 10° S daylight
19 Sep - 02:04:28 10° SW 02:07:37 40° NW 02:10:45 10° NNE night (unlit)
19 Sep - 13:39:54 10° NW 13:43:11 67° SW 13:46:29 10° SSE daylight
20 Sep - 01:15:32 10° SSW 01:18:51 74° SE 01:22:09 10° NE night (unlit)
20 Sep - 12:51:14 10° NNW 12:54:24 44° NE 12:57:35 10° SE daylight
21 Sep - 00:27:08 10° S 00:30:03 28° SE 00:32:57 10° ENE night (unlit)
21 Sep - 12:03:12 10° N 12:05:35 18° NE 12:07:58 10° E daylight
21 Sep - 13:40:21 10° W 13:42:05 14° SW 13:43:49 10° SSW daylight
21 Sep - 23:39:42 10° SSE 23:41:11 12° SE 23:42:40 10° E night (unlit)
22 Sep - 01:15:10 10° WSW 01:17:42 20° NW 01:20:13 10° N night (unlit)
22 Sep - 12:50:14 10° WNW 12:53:12 30° SW 12:56:11 10° S daylight
23 Sep - 00:25:35 10° SW 00:28:49 49° NW 00:32:01 10° NNE night (unlit)
23 Sep - 12:01:00 10° NW 12:04:18 83° SW 12:07:37 10° SSE daylight
23 Sep - 23:36:37 10° SSW 23:39:54 59° SE 23:43:10 10° NE night (unlit)
24 Sep - 11:12:18 10° NNW 11:15:22 36° NE 11:18:27 10° ESE daylight
24 Sep - 22:48:12 10° S 22:50:56 23° SE 22:53:38 10° ENE night (unlit)
25 Sep - 00:26:39 10° WNW 00:27:26 11° NW 00:28:12 10° NW night (unlit)
25 Sep - 10:24:20 10° NNE 10:26:23 15° NE 10:28:26 10° E daylight
25 Sep - 12:00:44 10° W 12:02:52 16° SW 12:05:01 10° SSW daylight
25 Sep - 22:01:23 10° SE 22:01:54 10° SE 22:02:25 10° ESE night (unlit)
25 Sep - 23:35:39 10° WSW 23:38:24 24° NW 23:41:09 10° N night (unlit)
